{"data":{"norad_id":67052,"intl_designator":"2025-294Y","name":"STARLINK-35720","alt_names":[],"object_type":"PAYLOAD","status":"ACTIVE","operator":null,"country":"US","launch_date":"2025-12-11","launch_site_code":"AFETR","launch_vehicle":null,"mission":null,"orbit_class":"UNKNOWN","rcs_meters":null,"size_class":null,"mass_kg":null,"dimensions":null,"purposes":["comms"],"wikipedia_slug":null,"has_3d_model":false,"image_url":null,"decayed_at":null,"tle_current":{"epoch":"2026-09-19T15:32:19.602240Z","epoch_age_seconds":155150,"freshness":"FRESH","line1":"1 67052U 25294Y   26262.64744910  .00010024  00000+0  37324-3 0  9993","line2":"2 67052  43.0013  22.6029 0000972 262.7973  97.2768 15.27585669 44469","mean_motion":15.27585669,"eccentricity":9.72e-5,"inclination_deg":43.0013,"raan_deg":22.6029,"arg_perigee_deg":262.7973,"mean_anomaly_deg":97.2768,"bstar":0.00037324,"rev_number":4446,"period_min":94.266398881751,"perigee_km":482.36521542817,"apogee_km":483.69902670531,"semimajor_km":6861.1691210667,"source":"CELESTRAK","updated_at":"2026-09-21T09:00:36.095646Z"}}}